Content
SEND FEEDBACK

Daily
Averages
Monthly
Summary
United States of America

NEW LIMERICK, MAINE


Home > North America > United States > Maine
Elevation: 606 feet     Latitude: 46 07N     Longitude: 067 47W

WEATHER
 
SELECT A DAY
Number of Records: 176,738;   Date Range: 1/1/95 - 10/29/14
 
SHARE

PRINT THIS DATA

[ ← Previous Day ]
WEATHER ALMANAC - FEBRUARY 18, 2013
[ Next Day → ]
[ °C ]   °F
Weather ElementAverageHighLow
Temperature18.8 °F25 °F (1:53 pm)12.2 °F (6:53 am)
Dewpoint6.4 °F12 °F (12:53 am)1.4 °F (6:53 am)
Humidity59.1 %81 % (12:53 am)49 % (2:53 pm)
Barometer29.37 in29.79 in (11:53 pm)29.05 in (1:09 am)
Wind Speed15.4 mph19.6 mph (1:53 pm)
Wind Gust40.3 mph (1:53 pm)
Weather ElementAverage
Visibility7 mi
Wind DirectionE (90.7 °)

Weather ElementTotal
Precipitation0.06 in
Heating Degree Days46.4 (Base 65)
Averaged from 30 records on February 18, 2013
WEATHER CONDITIONS BREAKOUT
WIND DIRECTION BREAKOUT
WEATHER BY HOUR - FEBRUARY 18, 2013
[ °C ]   °F
Local TimeTemperatureDewpointHumidityBarometerVisibilityWind DirectionWind SpeedGust SpeedPrecipitationEventsConditions
12:53 AM17.1 °F12.0 °F81 %29.07 in0.8 miNorth0.00 inSnowLight Snow
1:09 AM17.6 °F10.4 °F73 %29.05 in1.0 miNorth0.00 inSnowLight Snow
1:30 AM17.6 °F10.4 °F73 %29.05 in1.0 miNorth0.00 inSnowLight Snow
1:41 AM17.6 °F10.4 °F73 %29.06 in2.0 miNorth0.00 inSnowLight Snow
1:51 AM17.6 °F8.6 °F68 %29.07 in4.0 miNorth0.00 inSnowLight Snow
1:53 AM18.0 °F9.0 °F68 %29.10 in4.0 miNorth0.00 inSnowLight Snow
2:01 AM17.6 °F8.6 °F68 %29.07 in5.0 miNorth0.00 inSnowLight Snow
2:53 AM16.0 °F7.0 °F68 %29.14 in6.0 miNorth0.00 inOvercast
3:53 AM15.1 °F5.0 °F64 %29.18 in10.0 miNorth0.00 inMostly Cloudy
4:53 AM15.1 °F3.9 °F61 %29.22 in9.0 miNorth0.01 inOvercast
5:53 AM12.9 °F1.9 °F62 %29.26 in9.0 miNorth0.00 inOvercast
6:53 AM12.2 °F1.4 °F62 %29.27 in6.0 miNorthHaze
7:53 AM12.9 °F1.9 °F62 %29.34 in9.0 miNorth0.00 inOvercast
8:53 AM15.1 °F3.0 °F59 %29.37 in10.0 miNorth0.00 in
9:53 AM18.0 °F5.0 °F57 %29.40 in9.0 miNorth0.00 inMostly Cloudy
10:53 AM19.0 °F5.0 °F54 %29.42 in10.0 miNorthOvercast
11:53 AM19.9 °F5.0 °F52 %29.42 in10.0 miNorth0.01 inOvercast
12:53 PM21.9 °F8.1 °F55 %29.42 in5.0 miNorth0.01 inPartly Cloudy
1:53 PM25.0 °F9.0 °F51 %29.44 in2.5 miNW (310°)19.6 mph40.3 mph0.00 in
2:01 PM24.8 °F8.6 °F50 %29.41 in7.0 miNorth0.00 in
2:53 PM25.0 °F8.1 °F49 %29.47 in5.0 miNorth0.00 inHaze
3:53 PM24.1 °F8.1 °F51 %29.52 in9.0 miNorth0.00 in
4:53 PM23.0 °F7.0 °F50 %29.56 in8.0 miWNW (290°)13.8 mph29.9 mph0.01 inClear
5:53 PM21.0 °F6.1 °F53 %29.60 in10.0 miWNW (290°)17.3 mph27.6 mphClear
6:53 PM19.9 °F5.0 °F52 %29.63 in9.0 miWNW (300°)19.6 mph34.5 mph0.01 inClear
7:53 PM19.9 °F5.0 °F52 %29.65 in9.0 miNW (310°)17.3 mph32.2 mph0.00 inClear
8:53 PM19.9 °F5.0 °F52 %29.69 in9.0 miNW (310°)15.0 mph24.2 mphClear
9:53 PM19.9 °F5.0 °F52 %29.72 in10.0 miWNW (300°)12.7 mph26.5 mphClear
10:53 PM19.9 °F3.9 °F50 %29.75 in10.0 miNW (320°)13.8 mph19.6 mph0.01 inClear
11:53 PM19.0 °F3.9 °F52 %29.79 in10.0 miWNW (290°)9.2 mph18.4 mphClear
Hourly data recorded from KHUL, located miles away from New Limerick, Maine







STORIES FROM OUR PARTNERS